Regional Weather Roundup
Issued by NWS Goodland, KS

Home | Current Version | Previous Version | Graphics & Text | Print | Product List | Glossary On
Versions: 1 2 3 4 5 6 7 8 9 10 11 12 13 14 15 16 17 18 19 20 21 22 23 24 25 26 27 28 29 30 31 32 33 34 35 36 37 38 39 40 41 42 43 44 45 46 47 48 49 50
000
ASUS43 KGLD 201459
RWRGLD

GOODLAND FORECAST AREA HOURLY WEATHER ROUNDUP
NATIONAL WEATHER SERVICE GOODLAND KS
800 AM MST MON FEB 20 2017

...OFFICIAL OBSERVATIONS...

CITY           SKY/WX    TMP DP  RH WIND       PRES   REMARKS
GOODLAND KS    SUNNY     48  19  31 NW22      29.88R
HILL CITY KS   CLOUDY    53  37  54 NW13G21   29.79R
IMPERIAL NEB   SUNNY     47  19  33 NW24G35   29.84R
MCCOOK NEB     MOSUNNY   51  30  44 W20G29    29.79R
AKRON CO       SUNNY     41  19  41 NW8       29.94R
BURLINGTON CO  SUNNY     47  21  35 NW25      29.91R
LIMON CO       SUNNY     36  21  54 W9        29.98R
$$

...UNOFFICIAL OBSERVATIONS...

CITY           SKY/WX    TMP DP  RH WIND       PRES   REMARKS
LENORA KS        N/A     50  32  50 W8          N/A
NORTON KS      SUNNY     48  34  57 W15       29.78R
SHARON SPRINGS   N/A     47  22  37 NW18        N/A
TRENTON NEB      N/A     48  32  54 NW14        N/A
KIT CARSON CO    N/A     42  20  41 MISG        N/A
YUMA CO        FAIR      43  19  39 NW18G24   29.91R
$$




USA.gov is the U.S. government's official web portal to all federal, state and local government web resources and services.